{"data":{"norad_id":67680,"intl_designator":"2026-023G","name":"COSMOS 2606","alt_names":[],"object_type":"PAYLOAD","status":"ACTIVE","operator":null,"country":"CIS","launch_date":"2026-02-05","launch_site_code":"PLMSC","launch_vehicle":null,"mission":null,"orbit_class":"UNKNOWN","rcs_meters":null,"size_class":null,"mass_kg":null,"dimensions":null,"purposes":[],"wikipedia_slug":null,"has_3d_model":false,"image_url":null,"decayed_at":null,"tle_current":{"epoch":"2026-05-25T04:51:29.584800Z","epoch_age_seconds":60721,"freshness":"FRESH","line1":"1 67680U 26023G   26145.20242575  .00010928  00000+0  43987-3 0  9998","line2":"2 67680  96.6167 211.7204 0020963 199.2102 160.8350 15.24816068 16499","mean_motion":15.24816068,"eccentricity":0.0020963,"inclination_deg":96.6167,"raan_deg":211.7204,"arg_perigee_deg":199.2102,"mean_anomaly_deg":160.835,"bstar":0.00043987,"rev_number":1649,"period_min":94.437619737884,"perigee_km":476.93732166209,"apogee_km":505.73828171565,"semimajor_km":6869.4748016889,"source":"CELESTRAK","updated_at":"2026-05-25T13:38:07.184669Z"}}}